This is the latest recevied weather packets stored in our database for station/object S57ZT-10. If no packets are shown the sender has not sent any weather packets the latest 10 day(s).
| Time | Temp. | Humidity | Pressure | Rain* | Wind** | Luminosity | Snow |
|---|---|---|---|---|---|---|---|
| 1778067236 | 25.56° C | 35% | 1012.6 hPa | - | - | - | - |
| 1778066320 | 25° C | 37% | 1012.8 hPa | - | - | - | - |
| 1778065475 | 23.89° C | 39% | 1013 hPa | - | - | - | - |
| 1778065420 | 23.89° C | 39% | 1013 hPa | - | - | - | - |
| 1778064560 | 23.89° C | 39% | 1013.2 hPa | - | - | - | - |
| 1778063636 | 23.89° C | 38% | 1013.6 hPa | - | - | - | - |
| 1778062760 | 23.89° C | 38% | 1013.5 hPa | - | - | - | - |
| 1778061819 | 23.89° C | 39% | 1013.4 hPa | - | - | - | - |
| 1778060069 | 23.33° C | 40% | 1013.5 hPa | - | - | - | - |
| 1778060037 | 23.33° C | 40% | 1013.5 hPa | - | - | - | - |
| 1778059122 | 23.33° C | 40% | 1013.6 hPa | - | - | - | - |
| 1778058261 | 23.33° C | 39% | 1013.6 hPa | - | - | - | - |
| 1778057365 | 24.44° C | 37% | 1013.3 hPa | - | - | - | - |
| 1778054620 | 25° C | 35% | 1013.2 hPa | - | - | - | - |
| 1778053741 | 24.44° C | 34% | 1012.8 hPa | - | - | - | - |
| 1778051919 | 23.89° C | 35% | 1012.6 hPa | - | - | - | - |
| 1778051038 | 23.89° C | 39% | 1012.6 hPa | - | - | - | - |
| 1778049237 | 22.22° C | 44% | 1012.8 hPa | - | - | - | - |
| 1778048318 | 21.67° C | 44% | 1012.8 hPa | - | - | - | - |
| 1778047418 | 21.11° C | 44% | 1012.8 hPa | - | - | - | - |
| 1778046539 | 20.56° C | 44% | 1012.6 hPa | - | - | - | - |
| 1778045619 | 20° C | 45% | 1012.6 hPa | - | - | - | - |
| 1778044719 | 19.44° C | 46% | 1012.5 hPa | - | - | - | - |
| 1778043870 | 18.89° C | 46% | 1012.6 hPa | - | - | - | - |
| 1778043839 | 18.89° C | 46% | 1012.6 hPa | - | - | - | - |
* Rain since midnight (hover to see other rain measurements)
** Current wind speed in m/s (hover to see current wind gust speed)